Lakeville, MN

9:37 PM CST on January 18, 2017 (GMT -0600)
Airlake

Weather History for KLVN - November, 2011

Change the Weather History Date:

Tuesday, November 8, 2011

  Actual Average Record
Temperature  
Mean Temperature 36 °F -  
Max Temperature 42 °F 44 °F 78 °F (2006)
Min Temperature 30 °F 26 °F -2 °F (1991)
Degree Days  
Heating Degree Days 29    
Moisture  
Dew Point 26 °F    
Average Humidity 65    
Maximum Humidity 86    
Minimum Humidity 46    
Precipitation  
Precipitation 0.00 in - - ()
Sea Level Pressure  
Sea Level Pressure 30.16 in    
Wind  
Wind Speed 3 mph (NNE)    
Max Wind Speed 10 mph    
Max Gust Speed -    
Visibility 10 miles    
Events      
Averages and records for this station are not official NWS values.
T = Trace of Precipitation, MM = Missing Value Source: NWS Daily Summary

Daily Weather History Graph

Daily Weather History Graph

Search for Another Location

Airport or City:

Trip Planner

Search our weather history database for the weather conditions in past years. The results will help you decide how hot, cold, wet, or windy it might be!

Date:

Astronomy

Nov. 08, 2011 Rise Set
Actual Time 6:59 AM CST 4:52 PM CST
Civil Twilight 6:28 AM CST 5:23 PM CST
Nautical Twilight 5:53 AM CST 5:58 PM CST
Astronomical Twilight 5:19 AM CST 6:32 PM CST
Moon 3:34 PM CST (11/8) 4:56 AM CST (11/8)
Length of Visible Light 10h 55m
Length of Day
9h 53m
Waxing Gibbous, 96% of the Moon is Illuminated
Nov 8
Waxing Gibbous
Nov 10
Full
Nov 18
Last Quarter
Nov 25
New
Dec 2
First Quarter

Hourly Weather History & Observations

Time (CST) Temp. Windchill Dew Point Humidity Pressure Visibility Wind Dir Wind Speed Gust Speed Precip Events Conditions
12:11 AM 37.4 °F - 28.4 °F 70% 30.20 in 10.0 mi Calm Calm - N/A   Clear
12:31 AM 35.6 °F - 26.6 °F 70% 30.21 in 10.0 mi Calm Calm - N/A   Clear
12:52 AM 35.6 °F - 26.6 °F 70% 30.20 in 10.0 mi Calm Calm - N/A   Clear
1:11 AM 35.6 °F - 26.6 °F 70% 30.20 in 10.0 mi Calm Calm - N/A   Clear
1:31 AM 35.6 °F - 26.6 °F 70% 30.20 in 10.0 mi Calm Calm - N/A   Clear
1:52 AM 33.8 °F - 26.6 °F 75% 30.20 in 10.0 mi Calm Calm - N/A   Clear
2:11 AM 33.8 °F - 26.6 °F 75% 30.19 in 10.0 mi Calm Calm - N/A   Clear
2:31 AM 30.2 °F - 26.6 °F 86% 30.18 in 10.0 mi Calm Calm - N/A   Clear
2:52 AM 32.0 °F - 26.6 °F 80% 30.18 in 10.0 mi Calm Calm - N/A   Clear
3:11 AM 33.8 °F - 26.6 °F 75% 30.19 in 10.0 mi Calm Calm - N/A   Clear
3:31 AM 33.8 °F 30.8 °F 26.6 °F 75% 30.17 in 10.0 mi North 3.5 mph - N/A   Clear
3:52 AM 33.8 °F 30.8 °F 26.6 °F 75% 30.17 in 10.0 mi NNE 3.5 mph - N/A   Clear
4:12 AM 33.8 °F 30.8 °F 26.6 °F 75% 30.17 in 10.0 mi North 3.5 mph - N/A   Clear
4:31 AM 33.8 °F 29.6 °F 26.6 °F 75% 30.18 in 10.0 mi NNE 4.6 mph - N/A   Scattered Clouds
4:52 AM 32.0 °F - 26.6 °F 80% 30.18 in 10.0 mi Calm Calm - N/A   Clear
5:11 AM 32.0 °F 28.7 °F 26.6 °F 80% 30.18 in 10.0 mi North 3.5 mph - N/A   Clear
5:31 AM 32.0 °F 28.7 °F 26.6 °F 80% 30.17 in 10.0 mi North 3.5 mph - N/A   Clear
6:12 AM 32.0 °F 27.5 °F 26.6 °F 80% 30.17 in 10.0 mi NNE 4.6 mph - N/A   Clear
6:31 AM 32.0 °F 28.7 °F 26.6 °F 80% 30.17 in 10.0 mi North 3.5 mph - N/A   Clear
6:52 AM 32.0 °F 28.7 °F 26.6 °F 80% 30.17 in 10.0 mi North 3.5 mph - N/A   Clear
7:11 AM 32.0 °F 28.7 °F 26.6 °F 80% 30.17 in 10.0 mi NNE 3.5 mph - N/A   Clear
7:31 AM 32.0 °F - 26.6 °F 80% 30.17 in 10.0 mi Calm Calm - N/A   Clear
7:52 AM 32.0 °F - 26.6 °F 80% 30.17 in 10.0 mi Calm Calm - N/A   Clear
8:11 AM 32.0 °F - 26.6 °F 80% 30.19 in 10.0 mi Calm Calm - N/A   Clear
8:31 AM 33.8 °F - 28.4 °F 81% 30.18 in 10.0 mi Calm Calm - N/A   Clear
8:52 AM 37.4 °F 32.1 °F 28.4 °F 70% 30.17 in 10.0 mi NE 6.9 mph - N/A   Clear
9:11 AM 39.2 °F 33.6 °F 28.4 °F 65% 30.17 in 10.0 mi NE 8.1 mph - N/A   Clear
9:31 AM 39.2 °F 33.6 °F 28.4 °F 65% 30.18 in 10.0 mi ENE 8.1 mph - N/A   Clear
9:52 AM 39.2 °F 35.0 °F 28.4 °F 65% 30.18 in 10.0 mi NE 5.8 mph - N/A   Clear
10:12 AM 39.2 °F 33.6 °F 28.4 °F 65% 30.18 in 10.0 mi NE 8.1 mph - N/A   Clear
10:31 AM 39.2 °F 33.6 °F 26.6 °F 61% 30.19 in 10.0 mi NE 8.1 mph - N/A   Clear
10:52 AM 39.2 °F 33.6 °F 26.6 °F 61% 30.20 in 10.0 mi NE 8.1 mph - N/A   Clear
11:11 AM 39.2 °F 34.2 °F 26.6 °F 61% 30.18 in 10.0 mi NNE 6.9 mph - N/A   Clear
11:31 AM 41.0 °F 37.1 °F 26.6 °F 57% 30.18 in 10.0 mi ENE 5.8 mph - N/A   Clear
11:52 AM 41.0 °F 35.8 °F 26.6 °F 57% 30.17 in 10.0 mi NNE 8.1 mph - N/A   Scattered Clouds
12:11 PM 41.0 °F 36.4 °F 26.6 °F 57% 30.17 in 10.0 mi NNE 6.9 mph - N/A   Scattered Clouds
12:31 PM 42.8 °F 37.5 °F 26.6 °F 53% 30.16 in 10.0 mi NNE 9.2 mph - N/A   Scattered Clouds
12:52 PM 42.8 °F 38.6 °F 26.6 °F 53% 30.15 in 10.0 mi NNE 6.9 mph - N/A   Clear
1:11 PM 42.8 °F 38.6 °F 26.6 °F 53% 30.14 in 10.0 mi NE 6.9 mph - N/A   Clear
1:31 PM 42.8 °F 38.6 °F 26.6 °F 53% 30.14 in 10.0 mi NNE 6.9 mph - N/A   Clear
1:52 PM 42.8 °F 37.0 °F 26.6 °F 53% 30.13 in 10.0 mi NNE 10.4 mph - N/A   Clear
2:11 PM 42.8 °F 38.0 °F 24.8 °F 49% 30.13 in 10.0 mi NE 8.1 mph - N/A   Clear
2:31 PM 42.8 °F 37.5 °F 24.8 °F 49% 30.13 in 10.0 mi NNE 9.2 mph - N/A   Clear
2:51 PM 42.8 °F 37.5 °F 24.8 °F 49% 30.13 in 10.0 mi NNE 9.2 mph - N/A   Clear
3:12 PM 42.8 °F 38.0 °F 23.0 °F 46% 30.13 in 10.0 mi NNE 8.1 mph - N/A   Clear
3:32 PM 42.8 °F 38.6 °F 24.8 °F 49% 30.14 in 10.0 mi NNE 6.9 mph - N/A   Clear
3:51 PM 42.8 °F 38.6 °F 24.8 °F 49% 30.14 in 10.0 mi NNE 6.9 mph - N/A   Clear
4:11 PM 42.8 °F 39.3 °F 24.8 °F 49% 30.14 in 10.0 mi NNE 5.8 mph - N/A   Clear
4:32 PM 41.0 °F 37.1 °F 26.6 °F 57% 30.14 in 10.0 mi NNE 5.8 mph - N/A   Clear
5:11 PM 41.0 °F 38.0 °F 26.6 °F 57% 30.14 in 10.0 mi NNE 4.6 mph - N/A   Unknown
5:31 PM 39.2 °F 35.9 °F 26.6 °F 61% 30.14 in 10.0 mi North 4.6 mph - N/A   Unknown
5:51 PM 41.0 °F 38.0 °F 26.6 °F 57% 30.14 in 10.0 mi North 4.6 mph - N/A   Clear
6:12 PM 39.2 °F 37.0 °F 26.6 °F 61% 30.14 in 10.0 mi North 3.5 mph - N/A   Clear
6:31 PM 41.0 °F 38.0 °F 24.8 °F 53% 30.14 in 10.0 mi North 4.6 mph - N/A   Clear
6:52 PM 39.2 °F 35.9 °F 24.8 °F 56% 30.14 in 10.0 mi North 4.6 mph - N/A   Clear
7:31 PM 39.2 °F 35.0 °F 24.8 °F 56% 30.13 in 10.0 mi North 5.8 mph - N/A   Clear
7:52 PM 41.0 °F 37.1 °F 24.8 °F 53% 30.14 in 10.0 mi North 5.8 mph - N/A   Clear
8:11 PM 39.2 °F 35.9 °F 23.0 °F 52% 30.14 in 10.0 mi North 4.6 mph - N/A   Clear
8:31 PM 39.2 °F 37.0 °F 24.8 °F 56% 30.15 in 10.0 mi NNE 3.5 mph - N/A   Clear
8:52 PM 39.2 °F 35.9 °F 24.8 °F 56% 30.15 in 10.0 mi NNE 4.6 mph - N/A   Clear
9:11 PM 39.2 °F 37.0 °F 24.8 °F 56% 30.15 in 10.0 mi NE 3.5 mph - N/A   Clear
9:31 PM 39.2 °F - 24.8 °F 56% 30.15 in 10.0 mi Calm Calm - N/A   Clear
9:52 PM 39.2 °F - 24.8 °F 56% 30.15 in 10.0 mi Calm Calm - N/A   Clear
10:12 PM 37.4 °F - 24.8 °F 60% 30.14 in 10.0 mi Calm Calm - N/A   Clear
10:31 PM 37.4 °F - 24.8 °F 60% 30.14 in 10.0 mi Calm Calm - N/A   Clear
10:51 PM 37.4 °F - 24.8 °F 60% 30.13 in 10.0 mi Calm Calm - N/A   Clear
11:11 PM 39.2 °F - 24.8 °F 56% 30.13 in 10.0 mi Calm Calm - N/A   Clear
11:31 PM 37.4 °F 33.8 °F 24.8 °F 60% 30.12 in 10.0 mi North 4.6 mph - N/A   Clear
11:52 PM 39.2 °F 34.2 °F 24.8 °F 56% 30.11 in 10.0 mi North 6.9 mph - N/A   Clear